Hourly Weather Balta

Today, 25 September, Friday

Time Temperature Precipitation Wind Pressure Humidity
00:00 +17°C° 0 mm 2 mps 742 mmHg 75%
01:00 +16°C° 0 mm 2 mps 742 mmHg 79%
02:00 +16°C° 0 mm 1 mps 742 mmHg 84%
03:00 +16°C° 0 mm 1 mps 742 mmHg 85%
04:00 +16°C° 0 mm 2 mps 742 mmHg 86%
05:00 +16°C° 0 mm 2 mps 742 mmHg 86%
06:00 +17°C° 0 mm 2 mps 742 mmHg 80%
07:00 +18°C° 0 mm 2 mps 742 mmHg 74%
08:00 +20°C° 0 mm 3 mps 742 mmHg 65%
09:00 +22°C° 0 mm 3 mps 742 mmHg 57%
10:00 +25°C° 0 mm 4 mps 741 mmHg 50%
11:00 +27°C° 0 mm 4 mps 741 mmHg 42%
12:00 +27°C° 0 mm 4 mps 741 mmHg 40%
13:00 +28°C° 0 mm 4 mps 740 mmHg 38%
14:00 +29°C° 0 mm 5 mps 740 mmHg 36%
15:00 +29°C° 0 mm 4 mps 740 mmHg 37%
16:00 +28°C° 0 mm 4 mps 739 mmHg 38%
17:00 +28°C° 0 mm 4 mps 739 mmHg 40%
18:00 +25°C° 0 mm 4 mps 739 mmHg 45%
19:00 +22°C° 0 mm 4 mps 739 mmHg 51%
20:00 +20°C° 0 mm 4 mps 739 mmHg 57%
21:00 +19°C° 0 mm 4 mps 739 mmHg 61%
22:00 +18°C° 0 mm 4 mps 739 mmHg 64%
23:00 +17°C° 0 mm 3 mps 739 mmHg 68%

Tomorrow, 26 September, Saturday

Time Temperature Precipitation Wind Pressure Humidity
00:00 +16°C° 0 mm 3 mps 738 mmHg 73%
01:00 +16°C° 0 mm 3 mps 738 mmHg 78%
02:00 +14°C° 0 mm 3 mps 738 mmHg 82%
03:00 +14°C° 0 mm 3 mps 738 mmHg 87%
04:00 +14°C° 0 mm 3 mps 738 mmHg 91%
05:00 +14°C° 0 mm 4 mps 738 mmHg 95%
06:00 +17°C° 0 mm 4 mps 737 mmHg 89%
07:00 +17°C° 0 mm 5 mps 737 mmHg 82%
08:00 +19°C° 0 mm 6 mps 737 mmHg 75%
09:00 +21°C° 0 mm 6 mps 737 mmHg 66%
10:00 +23°C° 0 mm 7 mps 737 mmHg 56%
11:00 +26°C° 0 mm 7 mps 737 mmHg 46%
12:00 +27°C° 0 mm 8 mps 736 mmHg 44%
13:00 +28°C° 0 mm 8 mps 736 mmHg 42%
14:00 +29°C° 0 mm 9 mps 736 mmHg 40%
15:00 +28°C° 0 mm 9 mps 735 mmHg 45%
16:00 +27°C° 0 mm 9 mps 735 mmHg 50%
17:00 +24°C° 0 mm 8 mps 734 mmHg 54%
18:00 +23°C° 0 mm 8 mps 734 mmHg 61%
19:00 +22°C° 0 mm 8 mps 734 mmHg 69%
20:00 +20°C° 0 mm 7 mps 734 mmHg 76%
21:00 +20°C° 0 mm 7 mps 734 mmHg 78%
22:00 +20°C° 0 mm 7 mps 734 mmHg 80%
23:00 +20°C° 0 mm 7 mps 734 mmHg 82%

Day after tomorrow, 27 September, Sunday

Time Temperature Precipitation Wind Pressure Humidity
00:00 +20°C° 0.1 mm 7 mps 734 mmHg 80%
01:00 +20°C° 0.1 mm 8 mps 733 mmHg 78%
02:00 +21°C° 0.1 mm 8 mps 733 mmHg 76%
03:00 +20°C° 1.1 mm 8 mps 733 mmHg 79%
04:00 +20°C° 1.1 mm 8 mps 733 mmHg 82%
05:00 +20°C° 1.1 mm 7 mps 733 mmHg 85%
06:00 +18°C° 3.5 mm 7 mps 733 mmHg 82%
07:00 +19°C° 3.5 mm 6 mps 733 mmHg 78%
08:00 +19°C° 3.5 mm 6 mps 734 mmHg 75%
09:00 +20°C° 0 mm 5 mps 735 mmHg 66%
10:00 +21°C° 0 mm 5 mps 735 mmHg 57%
11:00 +22°C° 0 mm 5 mps 736 mmHg 48%
12:00 +23°C° 0 mm 5 mps 737 mmHg 45%
13:00 +23°C° 0 mm 5 mps 737 mmHg 42%
14:00 +25°C° 0 mm 5 mps 738 mmHg 39%
15:00 +23°C° 0 mm 4 mps 738 mmHg 40%
16:00 +23°C° 0 mm 4 mps 739 mmHg 41%
17:00 +22°C° 0 mm 3 mps 740 mmHg 42%
18:00 +21°C° 0 mm 3 mps 740 mmHg 46%
19:00 +20°C° 0 mm 2 mps 741 mmHg 50%
20:00 +19°C° 0 mm 2 mps 742 mmHg 54%
21:00 +18°C° 0 mm 2 mps 742 mmHg 58%
22:00 +18°C° 0 mm 2 mps 743 mmHg 61%
23:00 +17°C° 0 mm 2 mps 743 mmHg 64%

28 September, Monday

Time Temperature Precipitation Wind Pressure Humidity
00:00 +16°C° 0 mm 2 mps 744 mmHg 65%
01:00 +16°C° 0 mm 2 mps 744 mmHg 66%
02:00 +15°C° 0 mm 2 mps 744 mmHg 68%
03:00 +15°C° 0 mm 2 mps 744 mmHg 68%
04:00 +14°C° 0 mm 2 mps 745 mmHg 69%
05:00 +13°C° 0 mm 3 mps 745 mmHg 70%
06:00 +14°C° 0 mm 3 mps 745 mmHg 64%
07:00 +16°C° 0 mm 3 mps 745 mmHg 57%
08:00 +17°C° 0 mm 3 mps 746 mmHg 51%
09:00 +20°C° 0 mm 3 mps 746 mmHg 46%
10:00 +22°C° 0 mm 4 mps 746 mmHg 40%
11:00 +25°C° 0 mm 5 mps 746 mmHg 35%
12:00 +25°C° 0 mm 5 mps 745 mmHg 34%
13:00 +26°C° 0 mm 6 mps 745 mmHg 33%
14:00 +27°C° 0 mm 6 mps 745 mmHg 32%
15:00 +26°C° 0 mm 6 mps 745 mmHg 33%
16:00 +25°C° 0 mm 5 mps 744 mmHg 34%
17:00 +23°C° 0 mm 5 mps 744 mmHg 35%
18:00 +22°C° 0 mm 5 mps 744 mmHg 38%
19:00 +22°C° 0 mm 4 mps 744 mmHg 40%
20:00 +21°C° 0 mm 4 mps 744 mmHg 43%
21:00 +20°C° 0 mm 4 mps 744 mmHg 46%
22:00 +19°C° 0 mm 4 mps 744 mmHg 49%
23:00 +18°C° 0 mm 4 mps 743 mmHg 52%

29 September, Tuesday

Time Temperature Precipitation Wind Pressure Humidity
00:00 +18°C° 0 mm 4 mps 743 mmHg 54%
01:00 +17°C° 0 mm 3 mps 743 mmHg 57%
02:00 +17°C° 0 mm 3 mps 742 mmHg 59%
03:00 +16°C° 0 mm 3 mps 742 mmHg 59%
04:00 +15°C° 0 mm 4 mps 741 mmHg 60%
05:00 +15°C° 0 mm 4 mps 741 mmHg 60%
06:00 +15°C° 0 mm 4 mps 741 mmHg 58%
07:00 +16°C° 0 mm 5 mps 740 mmHg 57%
08:00 +17°C° 0 mm 5 mps 740 mmHg 56%
09:00 +19°C° 0.3 mm 5 mps 739 mmHg 54%
10:00 +20°C° 0.3 mm 6 mps 739 mmHg 52%
11:00 +22°C° 0.3 mm 7 mps 739 mmHg 50%
12:00 +22°C° 0.8 mm 7 mps 738 mmHg 51%
13:00 +23°C° 0.8 mm 7 mps 737 mmHg 52%
14:00 +24°C° 0.8 mm 7 mps 737 mmHg 54%
15:00 +23°C° 2.1 mm 6 mps 736 mmHg 57%
16:00 +22°C° 2.1 mm 6 mps 736 mmHg 60%
17:00 +22°C° 2.1 mm 5 mps 735 mmHg 63%
18:00 +20°C° 1.9 mm 4 mps 735 mmHg 70%
19:00 +19°C° 1.9 mm 4 mps 735 mmHg 77%
20:00 +18°C° 1.9 mm 3 mps 735 mmHg 84%
21:00 +17°C° 0.1 mm 3 mps 735 mmHg 87%
22:00 +16°C° 0.1 mm 3 mps 734 mmHg 91%
23:00 +14°C° 0.1 mm 3 mps 734 mmHg 94%

30 September, Wednesday

Time Temperature Precipitation Wind Pressure Humidity
00:00 +14°C° 0 mm 3 mps 734 mmHg 93%
01:00 +14°C° 0 mm 3 mps 734 mmHg 92%
02:00 +14°C° 0 mm 4 mps 733 mmHg 91%
03:00 +14°C° 0 mm 3 mps 733 mmHg 90%
04:00 +14°C° 0 mm 3 mps 733 mmHg 90%
05:00 +14°C° 0 mm 3 mps 733 mmHg 90%
06:00 +14°C° 0 mm 3 mps 733 mmHg 90%
07:00 +14°C° 0 mm 3 mps 733 mmHg 89%
08:00 +14°C° 0 mm 3 mps 733 mmHg 89%
09:00 +14°C° 0.1 mm 4 mps 733 mmHg 86%
10:00 +14°C° 0.1 mm 4 mps 733 mmHg 83%
11:00 +15°C° 0.1 mm 4 mps 733 mmHg 80%
12:00 +16°C° 0.1 mm 5 mps 734 mmHg 74%
13:00 +17°C° 0.1 mm 5 mps 734 mmHg 67%
14:00 +17°C° 0.1 mm 5 mps 734 mmHg 61%
15:00 +18°C° 0 mm 4 mps 734 mmHg 61%
16:00 +18°C° 0 mm 3 mps 734 mmHg 62%
17:00 +18°C° 0 mm 2 mps 734 mmHg 62%
18:00 +17°C° 0 mm 2 mps 734 mmHg 64%
19:00 +17°C° 0 mm 2 mps 735 mmHg 65%
20:00 +16°C° 0 mm 2 mps 735 mmHg 67%
21:00 +14°C° 0 mm 3 mps 735 mmHg 72%
22:00 +14°C° 0 mm 3 mps 735 mmHg 76%
23:00 +13°C° 0 mm 4 mps 735 mmHg 81%
Show more